| time (UTC) | temp F | wind direction | speed knots | gust knots | rain 1hr in | rain 24hr in | rain mn in | humidity % | barometer mb |
| 20260508014526 | 65 | 265 | 2.6 | 5.2 | 0.00 | 0.00 | 0.00 | 79 | 1013.2 |
| 20260508014025 | 66 | 339 | 3.5 | 5.2 | 0.00 | 0.00 | 0.00 | 78 | 1013.1 |
| 20260508013523 | 66 | 256 | 2.6 | 6.1 | 0.00 | 0.00 | 0.00 | 76 | 1013.1 |
| 20260508013023 | 66 | 331 | 3.5 | 6.1 | 0.00 | 0.00 | 0.00 | 77 | 1013.1 |
| 20260508012524 | 66 | 271 | 1.7 | 5.2 | 0.00 | 0.00 | 0.00 | 76 | 1013.0 |
| 20260508012024 | 66 | 277 | 2.6 | 4.3 | 0.00 | 0.00 | 0.00 | 76 | 1013.1 |
| 20260508011525 | 66 | 280 | 1.7 | 6.1 | 0.00 | 0.00 | 0.00 | 75 | 1013.0 |
| 20260508011023 | 66 | 339 | 4.3 | 6.1 | 0.00 | 0.00 | 0.00 | 75 | 1013.0 |
| 20260508010522 | 66 | 287 | 1.7 | 6.1 | 0.00 | 0.00 | 0.00 | 75 | 1013.0 |
| 20260508010023 | 66 | 297 | 3.5 | 7.0 | 0.00 | 0.00 | 0.00 | 76 | 1013.0 |
| 20260508005523 | 66 | 340 | 2.6 | 7.0 | 0.00 | 0.00 | 0.00 | 76 | 1013.0 |
| 20260508005023 | 67 | 354 | 2.6 | 7.0 | 0.00 | 0.00 | 0.00 | 76 | 1013.0 |
| 20260508004523 | 67 | 332 | 2.6 | 5.2 | 0.00 | 0.00 | 0.00 | 75 | 1013.1 |
| 20260508004023 | 67 | 335 | 3.5 | 5.2 | 0.00 | 0.00 | 0.00 | 76 | 1013.1 |
| 20260508003524 | 67 | 16 | 0.9 | 7.0 | 0.00 | 0.00 | 0.00 | 74 | 1013.1 |
| 20260508003022 | 67 | 275 | 2.6 | 7.0 | 0.00 | 0.00 | 0.00 | 75 | 1013.1 |
| 20260508002522 | 67 | 334 | 3.5 | 7.0 | 0.00 | 0.00 | 0.00 | 74 | 1013.1 |
| 20260508002023 | 67 | 348 | 4.3 | 7.0 | 0.00 | 0.00 | 0.00 | 75 | 1013.2 |
| 20260508001523 | 67 | 292 | 3.5 | 7.0 | 0.00 | 0.00 | 0.00 | 74 | 1013.1 |
| 20260508001021 | 67 | 273 | 1.7 | 6.1 | 0.00 | 0.00 | 0.00 | 74 | 1013.1 |
| 20260508000522 | 67 | 291 | 4.3 | 7.0 | 0.00 | 0.00 | 0.00 | 74 | 1013.1 |
| 20260508000022 | 67 | 280 | 2.6 | 7.0 | 0.00 | 0.00 | 0.00 | 74 | 1013.2 |
| 20260507235522 | 67 | 234 | 3.5 | 7.8 | 0.00 | 0.00 | 0.00 | 73 | 1013.1 |
| 20260507235021 | 67 | 270 | 2.6 | 7.8 | 0.00 | 0.00 | 0.00 | 73 | 1013.1 |
| 20260507234520 | 67 | 352 | 3.5 | 5.2 | 0.00 | 0.00 | 0.00 | 72 | 1013.2 |
| 20260507234243 | 67 | 268 | 0.9 | 8.7 | 0.00 | 0.00 | 0.00 | 73 | 1013.1 |
| 20260507233521 | 67 | 266 | 2.6 | 8.7 | 0.00 | 0.00 | 0.00 | 74 | 1013.3 |
| 20260507233020 | 67 | 2 | 6.1 | 7.8 | 0.00 | 0.00 | 0.00 | 73 | 1013.0 |
| 20260507232522 | 67 | 341 | 3.5 | 7.8 | 0.00 | 0.00 | 0.00 | 73 | 1013.1 |
| 20260507232021 | 67 | 342 | 1.7 | 6.1 | 0.00 | 0.00 | 0.00 | 72 | 1013.1 |
| 20260507231522 | 67 | 262 | 0.9 | 8.7 | 0.00 | 0.00 | 0.00 | 73 | 1013.1 |
| 20260507231020 | 68 | 258 | 5.2 | 8.7 | 0.00 | 0.00 | 0.00 | 74 | 1013.1 |
| 20260507230520 | 68 | 301 | 6.1 | 7.0 | 0.00 | 0.00 | 0.00 | 72 | 1013.2 |
| 20260507230246 | 68 | 303 | 5.2 | 7.8 | 0.00 | 0.00 | 0.00 | 72 | 1013.2 |
| 20260507225246 | 68 | 315 | 4.3 | 8.7 | 0.00 | 0.00 | 0.00 | 73 | 1013.2 |
| 20260507224743 | 68 | 268 | 4.3 | 8.7 | 0.00 | 0.00 | 0.00 | 73 | 1013.2 |
| 20260507224243 | 68 | 274 | 2.6 | 7.8 | 0.00 | 0.00 | 0.00 | 71 | 1013.2 |
| 20260507223521 | 68 | 268 | 2.6 | 7.8 | 0.00 | 0.00 | 0.00 | 72 | 1013.2 |
| 20260507223019 | 67 | 347 | 1.7 | 10.4 | 0.00 | 0.00 | 0.00 | 72 | 1013.3 |
| 20260507222519 | 67 | 263 | 3.5 | 10.4 | 0.00 | 0.00 | 0.00 | 73 | 1013.3 |
| 20260507222243 | 67 | 281 | 4.3 | 7.8 | 0.00 | 0.00 | 0.00 | 73 | 1013.4 |
| 20260507221520 | 67 | 313 | 4.3 | 7.8 | 0.00 | 0.00 | 0.00 | 72 | 1013.4 |
| 20260507221019 | 67 | 256 | 4.3 | 11.3 | 0.00 | 0.00 | 0.00 | 72 | 1013.4 |
| 20260507220518 | 67 | 275 | 3.5 | 11.3 | 0.00 | 0.00 | 0.00 | 74 | 1013.5 |
| 20260507220020 | 68 | 251 | 3.5 | 8.7 | 0.00 | 0.00 | 0.00 | 72 | 1013.5 |
| 20260507215750 | 68 | 268 | 2.6 | 8.7 | 0.00 | 0.00 | 0.00 | 73 | 1013.6 |
| 20260507215246 | 67 | 250 | 1.7 | 10.4 | 0.00 | 0.00 | 0.00 | 73 | 1013.7 |
| 20260507214518 | 67 | 345 | 1.7 | 10.4 | 0.00 | 0.00 | 0.00 | 72 | 1013.6 |
| 20260507214019 | 67 | 247 | 5.2 | 7.8 | 0.00 | 0.00 | 0.00 | 73 | 1013.8 |
| 20260507213735 | 67 | 346 | 6.1 | 7.8 | 0.00 | 0.00 | 0.00 | 73 | 1013.8 |
| 20260507213019 | 67 | 339 | 4.3 | 11.3 | 0.00 | 0.00 | 0.00 | 74 | 1013.9 |
| 20260507212519 | 67 | 319 | 5.2 | 11.3 | 0.00 | 0.00 | 0.00 | 74 | 1013.9 |
| 20260507212017 | 67 | 353 | 0.9 | 11.3 | 0.00 | 0.00 | 0.00 | 74 | 1013.9 |
| 20260507211737 | 67 | 295 | 3.5 | 10.4 | 0.00 | 0.00 | 0.00 | 72 | 1014.0 |
| 20260507211019 | 67 | 241 | 6.1 | 10.4 | 0.00 | 0.00 | 0.00 | 73 | 1014.0 |
| 20260507210518 | 67 | 347 | 7.8 | 10.4 | 0.00 | 0.00 | 0.00 | 73 | 1014.1 |
| 20260507210241 | 67 | 323 | 5.2 | 12.2 | 0.00 | 0.00 | 0.00 | 73 | 1014.0 |
| 20260507205518 | 67 | 273 | 1.7 | 12.2 | 0.00 | 0.00 | 0.00 | 74 | 1014.1 |
| 20260507205031 | 67 | 2 | 4.3 | 11.3 | 0.00 | 0.00 | 0.00 | 75 | 1014.1 |
| 20260507204518 | 67 | 298 | 7.0 | 11.3 | 0.00 | 0.00 | 0.00 | 73 | 1014.2 |
| 20260507204017 | 67 | 335 | 1.7 | 11.3 | 0.00 | 0.00 | 0.00 | 74 | 1014.1 |
| 20260507203518 | 67 | 320 | 6.1 | 11.3 | 0.00 | 0.00 | 0.00 | 75 | 1014.2 |
| 20260507203243 | 67 | 12 | 3.5 | 11.3 | 0.00 | 0.00 | 0.00 | 74 | 1014.2 |
| 20260507202742 | 67 | 255 | 3.5 | 11.3 | 0.00 | 0.00 | 0.00 | 71 | 1014.2 |
| 20260507202017 | 67 | 4 | 4.3 | 12.2 | 0.00 | 0.00 | 0.00 | 74 | 1014.2 |
| 20260507201517 | 67 | 238 | 1.7 | 12.2 | 0.00 | 0.00 | 0.00 | 74 | 1014.3 |
| 20260507201244 | 67 | 341 | 6.1 | 11.3 | 0.00 | 0.00 | 0.00 | 73 | 1014.2 |
| 20260507200516 | 68 | 1 | 7.0 | 10.4 | 0.00 | 0.00 | 0.00 | 73 | 1014.2 |
| 20260507200017 | 68 | 1 | 5.2 | 8.7 | 0.00 | 0.00 | 0.00 | 72 | 1014.3 |
| 20260507195734 | 68 | 348 | 3.5 | 7.8 | 0.00 | 0.00 | 0.00 | 73 | 1014.3 |
| 20260507195017 | 68 | 274 | 5.2 | 7.8 | 0.00 | 0.00 | 0.00 | 71 | 1014.4 |
| 20260507194516 | 68 | 313 | 4.3 | 10.4 | 0.00 | 0.00 | 0.00 | 72 | 1014.3 |
| 20260507194016 | 68 | 344 | 3.5 | 11.3 | 0.00 | 0.00 | 0.00 | 72 | 1014.3 |
| 20260507193742 | 68 | 331 | 6.1 | 11.3 | 0.00 | 0.00 | 0.00 | 74 | 1014.3 |
| 20260507193018 | 67 | 310 | 3.5 | 7.8 | 0.00 | 0.00 | 0.00 | 71 | 1014.3 |
| 20260507192515 | 67 | 250 | 2.6 | 8.7 | 0.00 | 0.00 | 0.00 | 73 | 1014.3 |
| 20260507192015 | 67 | 319 | 3.5 | 8.7 | 0.00 | 0.00 | 0.00 | 73 | 1014.3 |
| 20260507191517 | 67 | 263 | 4.3 | 8.7 | 0.00 | 0.00 | 0.00 | 74 | 1014.4 |
| 20260507191017 | 67 | 276 | 1.7 | 8.7 | 0.00 | 0.00 | 0.00 | 72 | 1014.5 |
| 20260507190016 | 67 | 297 | 3.5 | 7.8 | 0.00 | 0.00 | 0.00 | 73 | 1014.7 |
| 20260507185516 | 67 | 254 | 1.7 | 7.8 | 0.00 | 0.00 | 0.00 | 72 | 1014.6 |
| 20260507185016 | 67 | 331 | 2.6 | 7.8 | 0.00 | 0.00 | 0.00 | 74 | 1014.8 |
| 20260507184516 | 67 | 268 | 2.6 | 7.8 | 0.00 | 0.00 | 0.00 | 73 | 1014.8 |
| 20260507184015 | 67 | 267 | 3.5 | 7.8 | 0.00 | 0.00 | 0.00 | 73 | 1014.8 |
| 20260507183731 | 67 | 346 | 4.3 | 7.8 | 0.00 | 0.00 | 0.00 | 73 | 1014.8 |
| 20260507183248 | 67 | 267 | 5.2 | 10.4 | 0.00 | 0.00 | 0.00 | 72 | 1014.8 |
| 20260507182517 | 67 | 304 | 7.0 | 10.4 | 0.00 | 0.00 | 0.00 | 74 | 1014.8 |
| 20260507182015 | 67 | 250 | 1.7 | 8.7 | 0.00 | 0.00 | 0.00 | 74 | 1014.9 |
| 20260507181514 | 67 | 314 | 5.2 | 8.7 | 0.00 | 0.00 | 0.00 | 74 | 1014.9 |
| 20260507181015 | 67 | 344 | 3.5 | 8.7 | 0.00 | 0.00 | 0.00 | 74 | 1014.9 |
| 20260507180515 | 67 | 336 | 4.3 | 8.7 | 0.00 | 0.00 | 0.00 | 73 | 1014.9 |
| 20260507180016 | 67 | 246 | 2.6 | 6.1 | 0.00 | 0.00 | 0.00 | 73 | 1014.9 |
| 20260507175514 | 66 | 312 | 2.6 | 7.0 | 0.00 | 0.00 | 0.00 | 72 | 1014.9 |
| 20260507175015 | 66 | 350 | 0.9 | 7.0 | 0.00 | 0.00 | 0.00 | 73 | 1015.0 |
| 20260507174515 | 66 | 331 | 2.6 | 7.0 | 0.00 | 0.00 | 0.00 | 75 | 1015.1 |
| 20260507174014 | 65 | 296 | 2.6 | 6.1 | 0.00 | 0.00 | 0.00 | 75 | 1015.0 |
| 20260507173514 | 65 | 295 | 1.7 | 6.1 | 0.00 | 0.00 | 0.00 | 79 | 1015.1 |
| 20260507173015 | 65 | 267 | 1.7 | 8.7 | 0.00 | 0.00 | 0.00 | 75 | 1015.0 |
| 20260507172514 | 65 | 283 | 1.7 | 8.7 | 0.00 | 0.00 | 0.00 | 78 | 1015.1 |
| 20260507172013 | 65 | 261 | 1.7 | 5.2 | 0.00 | 0.00 | 0.00 | 77 | 1015.0 |
| 20260507171514 | 65 | 277 | 3.5 | 5.2 | 0.00 | 0.00 | 0.00 | 76 | 1015.1 |
| 20260507171013 | 64 | 255 | 2.6 | 5.2 | 0.00 | 0.00 | 0.00 | 76 | 1015.1 |
| 20260507170514 | 64 | 246 | 2.6 | 2.6 | 0.00 | 0.00 | 0.00 | 76 | 1015.2 |
| 20260507170013 | 64 | 261 | 2.6 | 7.0 | 0.00 | 0.00 | 0.00 | 77 | 1015.1 |
| 20260507165513 | 63 | 325 | 0.9 | 7.0 | 0.00 | 0.00 | 0.00 | 81 | 1015.2 |
| 20260507165012 | 63 | 317 | 4.3 | 5.2 | 0.00 | 0.00 | 0.00 | 80 | 1015.2 |
| 20260507164514 | 63 | 300 | 2.6 | 4.3 | 0.00 | 0.00 | 0.00 | 82 | 1015.2 |
| 20260507164012 | 63 | 255 | 0.0 | 5.2 | 0.00 | 0.00 | 0.00 | 80 | 1015.2 |
| 20260507163512 | 63 | 254 | 0.0 | 5.2 | 0.00 | 0.00 | 0.00 | 81 | 1015.3 |
| 20260507163011 | 63 | 320 | 1.7 | 4.3 | 0.00 | 0.00 | 0.00 | 81 | 1015.3 |
| 20260507162513 | 62 | 323 | 2.6 | 4.3 | 0.00 | 0.00 | 0.00 | 81 | 1015.3 |
| 20260507162011 | 62 | 250 | 0.9 | 2.6 | 0.00 | 0.00 | 0.00 | 81 | 1015.4 |
| 20260507161512 | 62 | 285 | 0.9 | 1.7 | 0.00 | 0.00 | 0.00 | 82 | 1015.4 |
| 20260507161011 | 62 | 269 | 0.0 | 1.7 | 0.00 | 0.00 | 0.00 | 82 | 1015.4 |
| 20260507160513 | 61 | 267 | 0.0 | 4.3 | 0.00 | 0.00 | 0.00 | 83 | 1015.3 |
| 20260507160012 | 61 | 350 | 2.6 | 4.3 | 0.00 | 0.00 | 0.00 | 84 | 1015.4 |
| 20260507155512 | 61 | 258 | 0.0 | 5.2 | 0.00 | 0.00 | 0.00 | 85 | 1015.4 |
| 20260507155011 | 61 | 312 | 2.6 | 5.2 | 0.00 | 0.00 | 0.00 | 85 | 1015.4 |
| 20260507154513 | 61 | 301 | 2.6 | 4.3 | 0.00 | 0.00 | 0.00 | 85 | 1015.4 |
| 20260507154013 | 60 | 260 | 0.9 | 4.3 | 0.00 | 0.00 | 0.00 | 84 | 1015.4 |
| 20260507153512 | 60 | 263 | 1.7 | 4.3 | 0.00 | 0.00 | 0.00 | 86 | 1015.4 |
| 20260507152012 | 60 | 297 | 0.9 | 4.3 | 0.00 | 0.00 | 0.00 | 86 | 1015.4 |
| 20260507151510 | 60 | 284 | 0.9 | 4.3 | 0.00 | 0.00 | 0.00 | 86 | 1015.3 |
| 20260507151236 | 59 | 307 | 1.7 | 4.3 | 0.00 | 0.00 | 0.00 | 86 | 1015.3 |
| 20260507150512 | 59 | 353 | 1.7 | 4.3 | 0.00 | 0.00 | 0.00 | 86 | 1015.3 |
| 20260507145731 | 59 | 285 | 0.0 | 2.6 | 0.00 | 0.00 | 0.00 | 86 | 1015.2 |
| 20260507145010 | 59 | 282 | 0.0 | 5.2 | 0.00 | 0.00 | 0.00 | 87 | 1015.2 |
| 20260507144510 | 59 | 20 | 1.7 | 5.2 | 0.00 | 0.00 | 0.00 | 87 | 1015.2 |
| 20260507144011 | 58 | 319 | 2.6 | 4.3 | 0.00 | 0.00 | 0.00 | 88 | 1015.2 |
| 20260507143733 | 58 | 21 | 0.9 | 4.3 | 0.00 | 0.00 | 0.00 | 88 | 1015.1 |
| 20260507143009 | 58 | 343 | 1.7 | 2.6 | 0.00 | 0.00 | 0.00 | 88 | 1015.1 |
| 20260507142511 | 58 | 28 | 0.9 | 1.7 | 0.00 | 0.00 | 0.00 | 88 | 1015.0 |
| 20260507142010 | 58 | 55 | 0.0 | 0.0 | 0.00 | 0.00 | 0.00 | 89 | 1015.0 |
| 20260507141733 | 57 | 311 | 0.0 | 0.0 | 0.00 | 0.00 | 0.00 | 89 | 1015.1 |
| 20260507141232 | 57 | 270 | 0.0 | 0.0 | 0.00 | 0.00 | 0.00 | 89 | 1015.0 |
| 20260507140511 | 57 | 254 | 0.0 | 0.0 | 0.00 | 0.00 | 0.00 | 90 | 1015.0 |
| 20260507140236 | 57 | 267 | 0.0 | 0.0 | 0.00 | 0.00 | 0.00 | 90 | 1014.9 |
| 20260507135734 | 56 | 187 | 0.0 | 0.0 | 0.00 | 0.00 | 0.00 | 91 | 1014.8 |
| 20260507135008 | 56 | 279 | 0.0 | 0.0 | 0.00 | 0.00 | 0.00 | 90 | 1014.8 |
| 20260507134729 | 56 | 254 | 0.0 | 0.0 | 0.00 | 0.00 | 0.00 | 91 | 1014.8 |
| 20260507134009 | 56 | 308 | 0.0 | 0.9 | 0.00 | 0.00 | 0.00 | 91 | 1014.8 |
| 20260507133509 | 56 | 277 | 0.0 | 1.7 | 0.00 | 0.00 | 0.00 | 91 | 1014.8 |
| 20260507133237 | 56 | 296 | 0.0 | 2.6 | 0.00 | 0.00 | 0.00 | 92 | 1014.8 |
| 20260507132508 | 56 | 57 | 1.7 | 2.6 | 0.00 | 0.00 | 0.00 | 91 | 1014.8 |
| 20260507132009 | 56 | 281 | 0.0 | 1.7 | 0.00 | 0.00 | 0.00 | 91 | 1014.7 |
| 20260507131509 | 56 | 265 | 0.0 | 4.3 | 0.00 | 0.00 | 0.00 | 92 | 1014.8 |
| 20260507131008 | 56 | 307 | 0.9 | 4.3 | 0.00 | 0.00 | 0.00 | 92 | 1014.8 |
| 20260507130508 | 56 | 272 | 0.0 | 1.7 | 0.00 | 0.00 | 0.00 | 92 | 1014.8 |
| 20260507130008 | 56 | 314 | 0.0 | 1.7 | 0.00 | 0.00 | 0.00 | 92 | 1014.7 |
| 20260507125509 | 56 | 285 | 0.0 | 1.7 | 0.00 | 0.00 | 0.00 | 92 | 1014.7 |
| 20260507125007 | 56 | 278 | 0.0 | 0.0 | 0.00 | 0.00 | 0.00 | 92 | 1014.6 |
| 20260507124507 | 56 | 222 | 0.0 | 0.9 | 0.00 | 0.00 | 0.00 | 92 | 1014.6 |
| 20260507124231 | 56 | 343 | 0.0 | 0.9 | 0.00 | 0.00 | 0.00 | 92 | 1014.5 |
| 20260507123508 | 56 | 261 | 0.0 | 0.9 | 0.00 | 0.00 | 0.00 | 92 | 1014.5 |
| 20260507123229 | 56 | 296 | 0.0 | 0.0 | 0.00 | 0.00 | 0.00 | 93 | 1014.4 |
| 20260507122508 | 56 | 264 | 0.0 | 0.0 | 0.00 | 0.00 | 0.00 | 93 | 1014.4 |
| 20260507122225 | 56 | 267 | 0.0 | 0.0 | 0.00 | 0.00 | 0.00 | 92 | 1014.4 |
| 20260507121510 | 56 | 262 | 0.0 | 1.7 | 0.00 | 0.00 | 0.00 | 91 | 1014.5 |
| 20260507121229 | 56 | 250 | 0.0 | 2.6 | 0.00 | 0.00 | 0.00 | 91 | 1014.5 |
| 20260507120506 | 56 | 307 | 0.9 | 2.6 | 0.00 | 0.00 | 0.00 | 91 | 1014.5 |
| 20260507120007 | 56 | 14 | 0.9 | 2.6 | 0.00 | 0.00 | 0.00 | 92 | 1014.4 |
| 20260507115507 | 56 | 355 | 1.7 | 1.7 | 0.00 | 0.00 | 0.00 | 92 | 1014.4 |
| 20260507115223 | 56 | 261 | 0.0 | 2.6 | 0.00 | 0.00 | 0.00 | 92 | 1014.4 |
| 20260507114507 | 56 | 192 | 0.0 | 2.6 | 0.00 | 0.00 | 0.00 | 93 | 1014.4 |
| 20260507114009 | 57 | 341 | 2.6 | 2.6 | 0.00 | 0.00 | 0.00 | 91 | 1014.4 |
| 20260507113732 | 57 | 290 | 0.0 | 0.0 | 0.00 | 0.00 | 0.00 | 91 | 1014.3 |
| 20260507113008 | 57 | 299 | 0.0 | 2.6 | 0.00 | 0.00 | 0.00 | 92 | 1014.2 |
| 20260507112505 | 57 | 323 | 0.0 | 2.6 | 0.00 | 0.00 | 0.00 | 91 | 1014.4 |
| 20260507112006 | 57 | 269 | 0.0 | 0.0 | 0.00 | 0.00 | 0.00 | 91 | 1014.5 |
| 20260507111509 | 57 | 273 | 0.0 | 0.0 | 0.00 | 0.00 | 0.00 | 91 | 1014.5 |
| 20260507111005 | 57 | 303 | 0.0 | 1.7 | 0.00 | 0.00 | 0.00 | 91 | 1014.5 |
| 20260507110505 | 57 | 354 | 0.9 | 1.7 | 0.00 | 0.00 | 0.00 | 91 | 1014.5 |
| 20260507110007 | 58 | 336 | 0.0 | 0.9 | 0.00 | 0.00 | 0.00 | 91 | 1014.5 |
| 20260507105733 | 58 | 347 | 0.0 | 0.0 | 0.00 | 0.00 | 0.00 | 90 | 1014.5 |
| 20260507105004 | 58 | 291 | 0.0 | 0.0 | 0.00 | 0.00 | 0.00 | 90 | 1014.6 |
| 20260507104507 | 58 | 306 | 0.0 | 0.0 | 0.00 | 0.00 | 0.00 | 90 | 1014.6 |
| 20260507104006 | 57 | 286 | 0.0 | 0.0 | 0.00 | 0.00 | 0.00 | 90 | 1014.7 |
| 20260507103506 | 57 | 291 | 0.0 | 0.0 | 0.00 | 0.00 | 0.00 | 90 | 1014.7 |
| 20260507103007 | 57 | 305 | 0.0 | 0.0 | 0.00 | 0.00 | 0.00 | 90 | 1014.7 |
| 20260507102732 | 57 | 339 | 0.0 | 1.7 | 0.00 | 0.00 | 0.00 | 90 | 1014.8 |
| 20260507102006 | 57 | 319 | 0.0 | 4.3 | 0.00 | 0.00 | 0.00 | 90 | 1014.8 |
| 20260507101508 | 57 | 342 | 1.7 | 4.3 | 0.00 | 0.00 | 0.00 | 91 | 1014.9 |
| 20260507101005 | 57 | 17 | 0.0 | 0.9 | 0.00 | 0.00 | 0.00 | 91 | 1015.0 |
| 20260507100503 | 57 | 333 | 0.0 | 0.0 | 0.00 | 0.00 | 0.00 | 91 | 1015.0 |
| 20260507100117 | 58 | 329 | 0.0 | 1.7 | 0.00 | 0.00 | 0.00 | 90 | 1014.9 |
| 20260507095617 | 58 | 271 | 0.0 | 4.3 | 0.00 | 0.00 | 0.00 | 90 | 1014.9 |
| 20260507095120 | 58 | 323 | 0.9 | 4.3 | 0.00 | 0.00 | 0.00 | 90 | 1014.9 |
| 20260507094841 | 58 | 310 | 0.9 | 2.6 | 0.00 | 0.00 | 0.00 | 90 | 1014.9 |
| 20260507094116 | 58 | 333 | 0.9 | 2.6 | 0.00 | 0.00 | 0.00 | 90 | 1014.9 |
| 20260507093617 | 58 | 281 | 0.0 | 1.7 | 0.00 | 0.00 | 0.00 | 90 | 1015.0 |
| 20260507093118 | 58 | 309 | 0.9 | 1.7 | 0.00 | 0.00 | 0.00 | 90 | 1015.0 |
| 20260507092617 | 58 | 327 | 0.0 | 2.6 | 0.00 | 0.00 | 0.00 | 89 | 1015.0 |
| 20260507092118 | 58 | 238 | 0.0 | 2.6 | 0.00 | 0.00 | 0.00 | 90 | 1015.2 |
| 20260507091616 | 58 | 351 | 1.7 | 2.6 | 0.00 | 0.00 | 0.00 | 90 | 1015.2 |
| 20260507091116 | 59 | 305 | 0.9 | 2.6 | 0.00 | 0.00 | 0.00 | 90 | 1015.2 |
| 20260507090618 | 59 | 329 | 0.9 | 2.6 | 0.00 | 0.00 | 0.00 | 90 | 1015.1 |
| 20260507085617 | 59 | 256 | 0.0 | 0.0 | 0.00 | 0.00 | 0.00 | 90 | 1015.3 |
| 20260507085116 | 59 | 271 | 0.0 | 0.0 | 0.00 | 0.00 | 0.00 | 89 | 1015.4 |
| 20260507084836 | 59 | 296 | 0.0 | 0.0 | 0.00 | 0.00 | 0.00 | 89 | 1015.5 |
| 20260507084116 | 59 | 294 | 0.0 | 0.0 | 0.00 | 0.00 | 0.00 | 89 | 1015.5 |
| 20260507083835 | 59 | 309 | 0.0 | 0.0 | 0.00 | 0.00 | 0.00 | 89 | 1015.6 |
| 20260507083117 | 59 | 300 | 0.0 | 0.0 | 0.00 | 0.00 | 0.00 | 89 | 1015.6 |
| 20260507082616 | 59 | 258 | 0.0 | 0.0 | 0.00 | 0.00 | 0.00 | 89 | 1015.7 |
| 20260507082116 | 59 | 293 | 0.0 | 0.0 | 0.00 | 0.00 | 0.00 | 89 | 1015.7 |
| 20260507081615 | 59 | 310 | 0.0 | 1.7 | 0.00 | 0.00 | 0.00 | 89 | 1015.8 |
| 20260507081340 | 60 | 317 | 0.0 | 1.7 | 0.00 | 0.00 | 0.00 | 89 | 1015.7 |
| 20260507080618 | 60 | 306 | 1.7 | 1.7 | 0.00 | 0.00 | 0.00 | 89 | 1015.7 |
| 20260507080116 | 60 | 291 | 0.9 | 1.7 | 0.00 | 0.00 | 0.00 | 88 | 1015.9 |
| 20260507075615 | 60 | 282 | 0.9 | 1.7 | 0.00 | 0.00 | 0.00 | 88 | 1015.8 |
| 20260507075115 | 60 | 280 | 0.9 | 2.6 | 0.00 | 0.00 | 0.00 | 88 | 1015.9 |
| 20260507074838 | 60 | 296 | 1.7 | 2.6 | 0.00 | 0.00 | 0.00 | 88 | 1015.8 |
| 20260507074116 | 60 | 320 | 2.6 | 2.6 | 0.00 | 0.00 | 0.00 | 88 | 1015.9 |
| 20260507073615 | 60 | 301 | 1.7 | 2.6 | 0.00 | 0.00 | 0.00 | 88 | 1015.9 |
| 20260507073114 | 60 | 301 | 2.6 | 2.6 | 0.00 | 0.00 | 0.00 | 88 | 1015.7 |
| 20260507072615 | 60 | 287 | 2.6 | 2.6 | 0.00 | 0.00 | 0.00 | 88 | 1015.8 |
| 20260507072115 | 60 | 311 | 0.0 | 2.6 | 0.00 | 0.00 | 0.00 | 88 | 1015.9 |
| 20260507071615 | 60 | 292 | 1.7 | 2.6 | 0.00 | 0.00 | 0.00 | 88 | 1015.8 |
| 20260507071114 | 60 | 322 | 2.6 | 2.6 | 0.00 | 0.00 | 0.00 | 88 | 1015.9 |
| 20260507070615 | 60 | 302 | 1.7 | 2.6 | 0.00 | 0.00 | 0.00 | 88 | 1015.9 |
| 20260507070115 | 60 | 325 | 0.0 | 4.3 | 0.00 | 0.00 | 0.00 | 88 | 1015.9 |
| 20260507065613 | 60 | 279 | 1.7 | 4.3 | 0.00 | 0.00 | 0.00 | 88 | 1016.0 |
| 20260507065113 | 60 | 328 | 3.5 | 4.3 | 0.00 | 0.00 | 0.00 | 88 | 1016.0 |
| 20260507064833 | 60 | 321 | 2.6 | 4.3 | 0.00 | 0.00 | 0.00 | 88 | 1016.0 |
| 20260507064114 | 60 | 270 | 1.7 | 2.6 | 0.00 | 0.00 | 0.00 | 88 | 1016.1 |
| 20260507063612 | 60 | 330 | 2.6 | 4.3 | 0.00 | 0.00 | 0.00 | 88 | 1016.1 |
| 20260507063114 | 60 | 352 | 0.9 | 5.2 | 0.00 | 0.00 | 0.00 | 88 | 1016.1 |
| 20260507062614 | 60 | 310 | 2.6 | 5.2 | 0.00 | 0.00 | 0.00 | 88 | 1016.1 |
| 20260507062114 | 60 | 343 | 3.5 | 5.2 | 0.00 | 0.00 | 0.00 | 88 | 1016.1 |
| 20260507061612 | 60 | 282 | 1.7 | 2.6 | 0.00 | 0.00 | 0.00 | 88 | 1016.1 |
| 20260507061113 | 60 | 275 | 1.7 | 2.6 | 0.00 | 0.00 | 0.00 | 88 | 1016.2 |
| 20260507060613 | 60 | 273 | 0.0 | 2.6 | 0.00 | 0.00 | 0.00 | 88 | 1016.2 |
| 20260507060114 | 60 | 264 | 0.0 | 2.6 | 0.00 | 0.00 | 0.00 | 88 | 1016.1 |
| 20260507055613 | 60 | 257 | 0.9 | 2.6 | 0.00 | 0.00 | 0.00 | 88 | 1016.0 |
| 20260507055113 | 60 | 273 | 1.7 | 4.3 | 0.00 | 0.00 | 0.00 | 88 | 1016.1 |
| 20260507054612 | 60 | 281 | 0.9 | 4.3 | 0.00 | 0.00 | 0.00 | 88 | 1016.1 |
| 20260507054112 | 60 | 311 | 3.5 | 4.3 | 0.00 | 0.00 | 0.00 | 88 | 1016.1 |
| 20260507053612 | 60 | 272 | 0.9 | 2.6 | 0.00 | 0.00 | 0.00 | 88 | 1016.0 |
| 20260507053334 | 60 | 273 | 0.9 | 2.6 | 0.00 | 0.00 | 0.00 | 88 | 1016.1 |
| 20260507052613 | 60 | 259 | 0.9 | 1.7 | 0.00 | 0.00 | 0.00 | 88 | 1016.1 |
| 20260507052113 | 60 | 269 | 0.0 | 2.6 | 0.00 | 0.00 | 0.00 | 88 | 1016.1 |
| 20260507051614 | 60 | 290 | 1.7 | 2.6 | 0.00 | 0.00 | 0.00 | 88 | 1016.0 |
| 20260507051111 | 60 | 279 | 0.9 | 2.6 | 0.00 | 0.00 | 0.00 | 87 | 1016.1 |
| 20260507050610 | 61 | 265 | 2.6 | 5.2 | 0.00 | 0.00 | 0.00 | 87 | 1016.0 |
| 20260507050113 | 61 | 317 | 2.6 | 5.2 | 0.00 | 0.00 | 0.00 | 87 | 1016.0 |
| 20260507045613 | 61 | 300 | 4.3 | 4.3 | 0.00 | 0.00 | 0.00 | 87 | 1015.9 |
| 20260507045111 | 61 | 291 | 2.6 | 5.2 | 0.00 | 0.00 | 0.00 | 87 | 1016.0 |
| 20260507044610 | 61 | 292 | 3.5 | 5.2 | 0.00 | 0.00 | 0.00 | 87 | 1016.0 |
| 20260507044115 | 61 | 318 | 3.5 | 4.3 | 0.00 | 0.00 | 0.00 | 87 | 1016.0 |
| 20260507043613 | 61 | 333 | 3.5 | 5.2 | 0.00 | 0.00 | 0.00 | 86 | 1016.0 |
| 20260507043112 | 61 | 325 | 3.5 | 6.1 | 0.00 | 0.00 | 0.00 | 86 | 1015.9 |
| 20260507042610 | 61 | 304 | 3.5 | 6.1 | 0.00 | 0.00 | 0.00 | 86 | 1016.0 |
| 20260507042331 | 61 | 317 | 4.3 | 6.1 | 0.00 | 0.00 | 0.00 | 85 | 1015.9 |
| 20260507041835 | 61 | 283 | 2.6 | 6.1 | 0.00 | 0.00 | 0.00 | 85 | 1015.9 |
| 20260507041110 | 61 | 311 | 4.3 | 6.1 | 0.00 | 0.00 | 0.00 | 85 | 1015.8 |
| 20260507040610 | 61 | 250 | 3.5 | 6.1 | 0.00 | 0.00 | 0.00 | 84 | 1015.9 |
| 20260507040112 | 61 | 358 | 1.7 | 8.7 | 0.00 | 0.00 | 0.00 | 84 | 1015.8 |
| 20260507035611 | 61 | 340 | 4.3 | 10.4 | 0.00 | 0.00 | 0.00 | 84 | 1015.8 |
| 20260507035110 | 61 | 357 | 7.0 | 12.2 | 0.00 | 0.00 | 0.00 | 84 | 1015.7 |
| 20260507034610 | 61 | 351 | 7.8 | 12.2 | 0.00 | 0.00 | 0.00 | 84 | 1015.6 |
| 20260507034110 | 61 | 283 | 4.3 | 11.3 | 0.00 | 0.00 | 0.00 | 84 | 1015.6 |
| 20260507033611 | 61 | 330 | 7.0 | 10.4 | 0.00 | 0.00 | 0.00 | 84 | 1015.6 |
| 20260507032610 | 61 | 345 | 7.0 | 10.4 | 0.00 | 0.00 | 0.00 | 84 | 1015.5 |
| 20260507032110 | 61 | 351 | 4.3 | 11.3 | 0.00 | 0.00 | 0.00 | 84 | 1015.5 |
| 20260507031611 | 62 | 355 | 7.0 | 11.3 | 0.00 | 0.00 | 0.00 | 83 | 1015.5 |
| 20260507031109 | 62 | 344 | 8.7 | 11.3 | 0.00 | 0.00 | 0.00 | 84 | 1015.3 |
| 20260507030610 | 62 | 345 | 9.6 | 11.3 | 0.00 | 0.00 | 0.00 | 83 | 1015.3 |
| 20260507025611 | 62 | 350 | 7.8 | 10.4 | 0.00 | 0.00 | 0.00 | 82 | 1015.2 |
| 20260507024608 | 62 | 329 | 7.8 | 13.0 | 0.00 | 0.00 | 0.00 | 83 | 1015.2 |
| 20260507024108 | 62 | 5 | 10.4 | 13.9 | 0.00 | 0.00 | 0.00 | 82 | 1015.1 |
| 20260507023609 | 62 | 340 | 9.6 | 13.9 | 0.00 | 0.00 | 0.00 | 81 | 1015.2 |
| 20260507022828 | 63 | 304 | 5.2 | 13.0 | 0.00 | 0.00 | 0.00 | 81 | 1015.0 |
| 20260507022108 | 63 | 337 | 7.8 | 12.2 | 0.00 | 0.00 | 0.00 | 80 | 1015.1 |
| 20260507021610 | 63 | 338 | 7.8 | 13.0 | 0.00 | 0.00 | 0.00 | 81 | 1015.1 |
| 20260507021108 | 63 | 5 | 8.7 | 13.0 | 0.00 | 0.00 | 0.00 | 79 | 1015.0 |
| 20260507020608 | 64 | 355 | 7.8 | 13.9 | 0.00 | 0.00 | 0.00 | 79 | 1015.0 |
| 20260507020108 | 64 | 350 | 8.7 | 13.9 | 0.00 | 0.00 | 0.00 | 78 | 1015.1 |
| 20260507015608 | 64 | 349 | 9.6 | 14.8 | 0.00 | 0.00 | 0.00 | 76 | 1014.9 |
| 20260507015109 | 65 | 353 | 9.6 | 14.8 | 0.00 | 0.00 | 0.00 | 77 | 1014.8 |